| time (UTC) | temp F | wind direction | speed MPH | gust MPH | rain 1hr in | rain 24hr in | rain mn in | humidity % | barometer mb |
| 20260505050503 | 44 | 157 | 1.0 | 3.0 | 0.00 | 0.00 | 0.00 | 99 | 1011.1 |
| 20260505041503 | 41 | 158 | 1.0 | 2.0 | 0.00 | 0.00 | 0.00 | 99 | 1011.1 |
| 20260505041004 | 41 | 158 | 1.0 | 2.0 | 0.00 | 0.00 | 0.00 | 99 | 1011.1 |
| 20260505040503 | 40 | 158 | 1.0 | 1.0 | 0.00 | 0.00 | 0.00 | 99 | 1011.0 |
| 20260505040026 | 40 | 158 | 1.0 | 1.0 | 0.00 | 0.00 | 0.00 | 99 | 1011.1 |
| 20260505035504 | 40 | 158 | 0.0 | 1.0 | 0.00 | 0.00 | 0.00 | 99 | 1011.3 |
| 20260505035004 | 40 | 158 | 1.0 | 1.0 | 0.00 | 0.00 | 0.00 | 99 | 1011.1 |
| 20260505034504 | 39 | 158 | 0.0 | 1.0 | 0.00 | 0.00 | 0.00 | 99 | 1011.2 |
| 20260505034004 | 39 | 158 | 1.0 | 1.0 | 0.00 | 0.00 | 0.00 | 99 | 1011.1 |
| 20260505033505 | 39 | 158 | 1.0 | 2.0 | 0.00 | 0.00 | 0.00 | 99 | 1011.2 |
| 20260505033025 | 39 | 159 | 1.0 | 2.0 | 0.00 | 0.00 | 0.00 | 99 | 1011.3 |
| 20260505032504 | 39 | 159 | 1.0 | 1.0 | 0.00 | 0.00 | 0.00 | 99 | 1011.3 |
| 20260505032004 | 40 | 159 | 0.0 | 1.0 | 0.00 | 0.00 | 0.00 | 99 | 1011.1 |
| 20260505031504 | 40 | 159 | 0.0 | 1.0 | 0.00 | 0.00 | 0.00 | 99 | 1011.1 |
| 20260505031004 | 40 | 159 | 0.0 | 2.0 | 0.00 | 0.00 | 0.00 | 99 | 1011.2 |
| 20260505030503 | 40 | 159 | 0.0 | 2.0 | 0.00 | 0.00 | 0.00 | 99 | 1011.2 |
| 20260505030005 | 40 | 160 | 0.0 | 1.0 | 0.00 | 0.00 | 0.00 | 99 | 1011.1 |
| 20260505025504 | 40 | 160 | 0.0 | 1.0 | 0.00 | 0.00 | 0.00 | 99 | 1011.4 |
| 20260505025004 | 40 | 160 | 1.0 | 2.0 | 0.00 | 0.00 | 0.00 | 99 | 1011.3 |
| 20260505024504 | 40 | 160 | 1.0 | 2.0 | 0.00 | 0.00 | 0.00 | 99 | 1011.3 |
| 20260505024003 | 41 | 160 | 1.0 | 2.0 | 0.00 | 0.00 | 0.00 | 99 | 1011.3 |
| 20260505023503 | 41 | 160 | 1.0 | 2.0 | 0.00 | 0.00 | 0.00 | 99 | 1011.3 |
| 20260505023004 | 41 | 160 | 0.0 | 1.0 | 0.00 | 0.00 | 0.00 | 99 | 1011.4 |
| 20260505022504 | 40 | 160 | 0.0 | 1.0 | 0.00 | 0.00 | 0.00 | 99 | 1011.2 |
| 20260505022004 | 41 | 160 | 0.0 | 1.0 | 0.00 | 0.00 | 0.00 | 99 | 1011.1 |
| 20260505021503 | 41 | 160 | 1.0 | 2.0 | 0.00 | 0.00 | 0.00 | 99 | 1011.4 |
| 20260505021004 | 41 | 159 | 1.0 | 2.0 | 0.00 | 0.00 | 0.00 | 99 | 1011.5 |
| 20260505020505 | 40 | 159 | 1.0 | 2.0 | 0.00 | 0.00 | 0.00 | 99 | 1011.5 |
| 20260505020005 | 40 | 159 | 1.0 | 2.0 | 0.00 | 0.00 | 0.00 | 99 | 1011.5 |
| 20260505015504 | 40 | 160 | 1.0 | 2.0 | 0.00 | 0.00 | 0.00 | 99 | 1011.3 |
| 20260505015003 | 40 | 160 | 1.0 | 2.0 | 0.00 | 0.00 | 0.00 | 99 | 1011.3 |
| 20260505014505 | 40 | 161 | 1.0 | 3.0 | 0.00 | 0.00 | 0.00 | 98 | 1011.5 |
| 20260505014004 | 40 | 161 | 1.0 | 3.0 | 0.00 | 0.00 | 0.00 | 99 | 1011.4 |
| 20260505013525 | 40 | 161 | 1.0 | 2.0 | 0.00 | 0.00 | 0.00 | 98 | 1011.4 |
| 20260505013003 | 40 | 162 | 1.0 | 2.0 | 0.00 | 0.00 | 0.00 | 98 | 1011.4 |
| 20260505012525 | 41 | 162 | 1.0 | 2.0 | 0.00 | 0.00 | 0.00 | 98 | 1011.2 |
| 20260505012003 | 42 | 162 | 2.0 | 3.0 | 0.00 | 0.00 | 0.00 | 99 | 1011.5 |
| 20260505011503 | 41 | 161 | 1.0 | 3.0 | 0.00 | 0.00 | 0.00 | 99 | 1011.4 |
| 20260505011004 | 41 | 159 | 1.0 | 3.0 | 0.00 | 0.00 | 0.00 | 99 | 1011.3 |
| 20260505010503 | 41 | 158 | 2.0 | 3.0 | 0.00 | 0.00 | 0.00 | 98 | 1011.3 |
| 20260505010005 | 41 | 157 | 1.0 | 2.0 | 0.00 | 0.00 | 0.00 | 98 | 1011.4 |
| 20260505005504 | 42 | 157 | 1.0 | 2.0 | 0.00 | 0.00 | 0.00 | 98 | 1011.5 |
| 20260505005004 | 42 | 157 | 1.0 | 3.0 | 0.00 | 0.00 | 0.00 | 98 | 1011.4 |
| 20260505004525 | 42 | 156 | 1.0 | 3.0 | 0.00 | 0.00 | 0.00 | 98 | 1011.3 |
| 20260505004004 | 42 | 155 | 1.0 | 3.0 | 0.00 | 0.00 | 0.00 | 98 | 1011.3 |
| 20260505003504 | 42 | 154 | 1.0 | 3.0 | 0.00 | 0.00 | 0.00 | 98 | 1011.3 |
| 20260505003005 | 43 | 153 | 1.0 | 3.0 | 0.00 | 0.00 | 0.00 | 98 | 1011.5 |
| 20260505002504 | 42 | 153 | 0.0 | 1.0 | 0.00 | 0.00 | 0.00 | 98 | 1011.5 |
| 20260505002003 | 42 | 153 | 1.0 | 2.0 | 0.00 | 0.00 | 0.00 | 98 | 1011.5 |
| 20260505001524 | 43 | 153 | 1.0 | 2.0 | 0.00 | 0.00 | 0.00 | 98 | 1011.4 |
| 20260505001004 | 43 | 153 | 1.0 | 3.0 | 0.00 | 0.00 | 0.00 | 98 | 1011.6 |
| 20260505000504 | 43 | 153 | 1.0 | 3.0 | 0.00 | 0.00 | 0.00 | 98 | 1011.6 |
| 20260505000003 | 43 | 153 | 1.0 | 2.0 | 0.00 | 0.00 | 0.00 | 98 | 1011.4 |
| 20260504235524 | 43 | 152 | 1.0 | 2.0 | 0.00 | 0.00 | 0.00 | 98 | 1011.6 |
| 20260504235003 | 44 | 151 | 1.0 | 2.0 | 0.00 | 0.00 | 0.00 | 98 | 1011.6 |
| 20260504234503 | 43 | 151 | 1.0 | 2.0 | 0.00 | 0.00 | 0.00 | 98 | 1011.7 |
| 20260504234025 | 43 | 149 | 1.0 | 2.0 | 0.00 | 0.00 | 0.00 | 98 | 1011.6 |
| 20260504233525 | 43 | 148 | 1.0 | 2.0 | 0.00 | 0.00 | 0.00 | 98 | 1011.7 |
| 20260504233003 | 43 | 148 | 1.0 | 1.0 | 0.00 | 0.00 | 0.00 | 98 | 1011.7 |
| 20260504232525 | 43 | 148 | 1.0 | 2.0 | 0.00 | 0.00 | 0.00 | 98 | 1011.6 |
| 20260504232003 | 44 | 148 | 1.0 | 2.0 | 0.00 | 0.00 | 0.00 | 98 | 1011.8 |
| 20260504231504 | 44 | 147 | 1.0 | 2.0 | 0.00 | 0.00 | 0.00 | 98 | 1011.9 |
| 20260504231004 | 44 | 147 | 1.0 | 2.0 | 0.00 | 0.00 | 0.00 | 98 | 1011.9 |
| 20260504230503 | 44 | 147 | 1.0 | 2.0 | 0.00 | 0.00 | 0.00 | 98 | 1012.0 |
| 20260504230005 | 44 | 147 | 0.0 | 1.0 | 0.00 | 0.00 | 0.00 | 98 | 1011.9 |
| 20260504225504 | 44 | 147 | 0.0 | 1.0 | 0.00 | 0.00 | 0.00 | 98 | 1012.0 |
| 20260504225004 | 44 | 147 | 0.0 | 1.0 | 0.00 | 0.00 | 0.00 | 98 | 1011.9 |
| 20260504224525 | 44 | 147 | 0.0 | 1.0 | 0.00 | 0.00 | 0.00 | 98 | 1011.8 |
| 20260504224025 | 44 | 147 | 0.0 | 2.0 | 0.00 | 0.00 | 0.00 | 98 | 1011.9 |
| 20260504223503 | 44 | 147 | 1.0 | 2.0 | 0.00 | 0.00 | 0.00 | 98 | 1012.0 |
| 20260504223003 | 44 | 147 | 1.0 | 2.0 | 0.00 | 0.00 | 0.00 | 98 | 1012.0 |
| 20260504222504 | 43 | 146 | 1.0 | 2.0 | 0.00 | 0.00 | 0.00 | 97 | 1012.0 |
| 20260504222003 | 43 | 144 | 1.0 | 2.0 | 0.00 | 0.00 | 0.00 | 97 | 1012.0 |
| 20260504221504 | 44 | 143 | 1.0 | 2.0 | 0.00 | 0.00 | 0.00 | 97 | 1012.1 |
| 20260504221004 | 44 | 142 | 1.0 | 2.0 | 0.00 | 0.00 | 0.00 | 97 | 1012.1 |
| 20260504220524 | 44 | 148 | 1.0 | 2.0 | 0.00 | 0.00 | 0.00 | 97 | 1012.1 |
| 20260504220004 | 44 | 155 | 1.0 | 2.0 | 0.00 | 0.00 | 0.00 | 97 | 1012.1 |
| 20260504215504 | 44 | 158 | 1.0 | 1.0 | 0.00 | 0.00 | 0.00 | 96 | 1012.2 |
| 20260504215004 | 44 | 158 | 1.0 | 2.0 | 0.00 | 0.00 | 0.00 | 96 | 1012.1 |
| 20260504214503 | 44 | 158 | 1.0 | 2.0 | 0.00 | 0.00 | 0.00 | 96 | 1012.1 |
| 20260504214004 | 44 | 158 | 1.0 | 2.0 | 0.00 | 0.00 | 0.00 | 96 | 1012.1 |
| 20260504213504 | 44 | 158 | 0.0 | 2.0 | 0.00 | 0.00 | 0.00 | 96 | 1012.2 |
| 20260504213003 | 45 | 158 | 0.0 | 2.0 | 0.00 | 0.00 | 0.00 | 96 | 1012.2 |
| 20260504212504 | 45 | 158 | 1.0 | 2.0 | 0.00 | 0.00 | 0.00 | 95 | 1012.3 |
| 20260504212003 | 45 | 158 | 1.0 | 2.0 | 0.00 | 0.00 | 0.00 | 95 | 1012.0 |
| 20260504211524 | 46 | 158 | 0.0 | 1.0 | 0.00 | 0.00 | 0.00 | 95 | 1012.2 |
| 20260504211003 | 46 | 158 | 1.0 | 2.0 | 0.00 | 0.00 | 0.00 | 95 | 1012.1 |
| 20260504210503 | 46 | 158 | 1.0 | 2.0 | 0.00 | 0.00 | 0.00 | 95 | 1012.1 |
| 20260504210004 | 47 | 158 | 1.0 | 2.0 | 0.00 | 0.00 | 0.00 | 95 | 1012.0 |
| 20260504205504 | 47 | 158 | 0.0 | 1.0 | 0.00 | 0.00 | 0.00 | 95 | 1012.2 |
| 20260504205003 | 47 | 158 | 0.0 | 1.0 | 0.00 | 0.00 | 0.00 | 95 | 1012.2 |
| 20260504204504 | 47 | 158 | 1.0 | 2.0 | 0.00 | 0.00 | 0.00 | 95 | 1012.4 |
| 20260504204004 | 47 | 158 | 1.0 | 2.0 | 0.00 | 0.00 | 0.00 | 95 | 1012.2 |
| 20260504203503 | 47 | 159 | 1.0 | 2.0 | 0.00 | 0.00 | 0.00 | 95 | 1012.3 |
| 20260504203003 | 47 | 159 | 2.0 | 3.0 | 0.00 | 0.00 | 0.00 | 94 | 1012.3 |
| 20260504202503 | 47 | 159 | 1.0 | 3.0 | 0.00 | 0.00 | 0.00 | 94 | 1012.2 |
| 20260504202004 | 47 | 159 | 1.0 | 3.0 | 0.00 | 0.00 | 0.00 | 94 | 1012.2 |
| 20260504201503 | 47 | 159 | 1.0 | 3.0 | 0.00 | 0.00 | 0.00 | 93 | 1012.2 |
| 20260504201025 | 48 | 159 | 1.0 | 3.0 | 0.00 | 0.00 | 0.00 | 93 | 1012.3 |
| 20260504200503 | 48 | 159 | 2.0 | 3.0 | 0.00 | 0.00 | 0.00 | 93 | 1012.2 |
| 20260504200024 | 48 | 159 | 2.0 | 3.0 | 0.00 | 0.00 | 0.00 | 92 | 1012.1 |
| 20260504195504 | 49 | 153 | 1.0 | 3.0 | 0.00 | 0.00 | 0.00 | 92 | 1012.1 |
| 20260504195004 | 49 | 146 | 1.0 | 3.0 | 0.00 | 0.00 | 0.00 | 93 | 1012.2 |
| 20260504194503 | 49 | 137 | 1.0 | 2.0 | 0.00 | 0.00 | 0.00 | 92 | 1012.1 |
| 20260504194004 | 49 | 137 | 1.0 | 2.0 | 0.00 | 0.00 | 0.00 | 92 | 1012.2 |
| 20260504193503 | 49 | 137 | 1.0 | 2.0 | 0.00 | 0.00 | 0.00 | 91 | 1012.1 |
| 20260504193004 | 50 | 124 | 1.0 | 2.0 | 0.00 | 0.00 | 0.00 | 90 | 1012.3 |
| 20260504192504 | 50 | 94 | 1.0 | 2.0 | 0.00 | 0.00 | 0.00 | 91 | 1012.0 |
| 20260504192024 | 49 | 70 | 1.0 | 2.0 | 0.00 | 0.00 | 0.00 | 91 | 1012.1 |
| 20260504191503 | 49 | 62 | 0.0 | 1.0 | 0.00 | 0.00 | 0.00 | 90 | 1012.2 |
| 20260504191003 | 50 | 62 | 0.0 | 1.0 | 0.00 | 0.00 | 0.00 | 90 | 1012.2 |
| 20260504190503 | 50 | 62 | 0.0 | 1.0 | 0.00 | 0.00 | 0.00 | 89 | 1012.3 |
| 20260504190004 | 50 | 62 | 0.0 | 2.0 | 0.00 | 0.00 | 0.00 | 89 | 1012.4 |
| 20260504185503 | 51 | 62 | 0.0 | 2.0 | 0.00 | 0.00 | 0.00 | 88 | 1012.2 |
| 20260504185003 | 51 | 62 | 0.0 | 2.0 | 0.00 | 0.00 | 0.00 | 87 | 1012.3 |
| 20260504184503 | 52 | 58 | 0.0 | 2.0 | 0.00 | 0.00 | 0.00 | 87 | 1012.3 |
| 20260504184003 | 52 | 41 | 0.0 | 2.0 | 0.00 | 0.00 | 0.00 | 87 | 1012.3 |
| 20260504183503 | 52 | 16 | 1.0 | 2.0 | 0.00 | 0.00 | 0.00 | 86 | 1012.1 |
| 20260504183003 | 52 | 348 | 1.0 | 4.0 | 0.00 | 0.00 | 0.00 | 86 | 1012.2 |
| 20260504182503 | 52 | 327 | 1.0 | 4.0 | 0.00 | 0.00 | 0.00 | 86 | 1012.0 |
| 20260504182003 | 53 | 328 | 1.0 | 3.0 | 0.00 | 0.00 | 0.00 | 85 | 1012.0 |
| 20260504181503 | 53 | 250 | 1.0 | 3.0 | 0.00 | 0.00 | 0.00 | 85 | 1012.0 |
| 20260504181004 | 53 | 264 | 1.0 | 3.0 | 0.00 | 0.00 | 0.00 | 85 | 1012.1 |
| 20260504180504 | 53 | 280 | 0.0 | 3.0 | 0.00 | 0.00 | 0.00 | 85 | 1012.0 |
| 20260504180004 | 53 | 334 | 1.0 | 4.0 | 0.00 | 0.00 | 0.00 | 84 | 1011.8 |
| 20260504175525 | 54 | 338 | 1.0 | 4.0 | 0.00 | 0.00 | 0.00 | 84 | 1011.8 |
| 20260504175004 | 54 | 317 | 1.0 | 8.0 | 0.00 | 0.00 | 0.00 | 83 | 1011.9 |
| 20260504174503 | 54 | 310 | 1.0 | 8.0 | 0.00 | 0.00 | 0.00 | 83 | 1011.8 |
| 20260504174003 | 54 | 299 | 1.0 | 3.0 | 0.00 | 0.00 | 0.00 | 82 | 1011.9 |
| 20260504173504 | 54 | 298 | 1.0 | 4.0 | 0.00 | 0.00 | 0.00 | 82 | 1011.7 |
| 20260504173003 | 55 | 293 | 2.0 | 6.0 | 0.00 | 0.00 | 0.00 | 81 | 1011.7 |
| 20260504172504 | 55 | 287 | 2.0 | 9.0 | 0.00 | 0.00 | 0.00 | 80 | 1011.8 |
| 20260504172004 | 56 | 283 | 2.0 | 9.0 | 0.00 | 0.00 | 0.00 | 79 | 1011.7 |
| 20260504171503 | 56 | 282 | 2.0 | 6.0 | 0.00 | 0.00 | 0.00 | 80 | 1011.8 |
| 20260504171003 | 56 | 275 | 1.0 | 6.0 | 0.00 | 0.00 | 0.00 | 79 | 1011.7 |
| 20260504170504 | 56 | 261 | 1.0 | 6.0 | 0.00 | 0.00 | 0.00 | 78 | 1011.7 |
| 20260504151004 | 60 | 290 | 3.0 | 9.0 | 0.00 | 0.00 | 0.00 | 73 | 1011.7 |
| 20260504150504 | 60 | 284 | 3.0 | 13.0 | 0.00 | 0.00 | 0.00 | 74 | 1011.5 |
| 20260504141002 | 62 | 279 | 3.0 | 9.0 | 0.00 | 0.00 | 0.00 | 71 | 1011.3 |
| 20260504140502 | 63 | 271 | 3.0 | 11.0 | 0.00 | 0.00 | 0.00 | 70 | 1011.3 |
| 20260504130504 | 64 | 274 | 6.0 | 15.0 | 0.00 | 0.00 | 0.00 | 68 | 1011.0 |
| 20260504110503 | 65 | 269 | 2.0 | 9.0 | 0.00 | 0.00 | 0.00 | 69 | 1010.3 |
| 20260504100503 | 66 | 269 | 3.0 | 8.0 | 0.00 | 0.00 | 0.00 | 68 | 1010.3 |
| 20260504082003 | 63 | 277 | 2.0 | 6.0 | 0.00 | 0.00 | 0.00 | 77 | 1010.1 |
| 20260504081503 | 63 | 296 | 2.0 | 6.0 | 0.00 | 0.00 | 0.00 | 77 | 1010.2 |
| 20260504081003 | 63 | 282 | 2.0 | 7.0 | 0.00 | 0.00 | 0.00 | 79 | 1009.9 |
| 20260504080502 | 63 | 264 | 2.0 | 7.0 | 0.00 | 0.00 | 0.00 | 75 | 1010.1 |